FENGYUN 1C DEB, 29767

Orbit data source: Space-Track

FENGYUN 1C DEB, 29767 is space debris in SSO originally from a launch on Mon, 10 May 1999 UTC launched from the Taiyaun Space Center, China (TSC). Fengyun 1C debris stems from the Chinese weather satellite Fengyun-1C, which was intentionally destroyed by a Chinese anti-satellite missile in 2007. This event dramatically increased the amount of space debris, with thousands of trackable fragments posing hazards to satellites and human spaceflight. The Fengyun 1C debris cloud has become a focal point in discussions about space sustainability and the need for international regulations to prevent the creation of new debris.

Loading next visibility...
Identifier
29767, 1999-025BH
Orbit
SSO
Country
Flag of CNCN / PRC
Related business
Manufacturer
Unknown
Mission
Spacecraft
Bus & Motor
Unknown
Mass
Unknown
Launch date (UTC)
1999-05-10 (27 years ago)
Launch vehicle
Unknown
Launch site
Taiyaun Space Center, China (TSC)
Object type
Payload
Rocket body
Debris
Shape & HBR
Unknown shape, 0.1 m
Radar Cross Section
Small (<0.1 m²)

Expand to show TLE details & history
Last TLE update: 21 hours ago

TLE from 21 hours ago
0 FENGYUN 1C DEB
1 29767U 99025BH  26206.58708565  .00002712  00000-0  10549-2 0  9999
2 29767  98.2133 159.2438 0325682 139.1675 279.6008 14.05256431987567
Epoch: 2026-07-25T14:05Z
TLE epoch observation values (Epoch: 2026-07-25T14:05:24.200Z)
Latitude
54.33347°
Longitude
-6.94444°
Altitude
852.709 km
Speed
7.448 km/s
True Right ascension
09h 50m 48s
True Declination
54° 10' 21"
Sunlit
Object was in daylight at epoch
Visualization orbit readout
Latitude
Unknown
Longitude
Unknown
Altitude
Unknown
Speed
Unknown
Apparent Right ascension
Unknown
Apparent Declination
Unknown
Sunlit
N/A
Visualization observer readout
Local Sidereal Time
00:11:29
Azimuth
Unknown
Elevation
Unknown
Doppler factor
Unknown
Orbital elements
Apogee altitude
1,108.951 km
Perigee altitude
636.651 km
Semi-major axis
7,250.938 km
Eccentricity
0.03257
Inclination
98.2133°
RAAN
159.2438°
Arg. of periapsis
139.1675°
True anomaly
275.89846°
Mean anomaly
279.6008°
Eccentric anomaly
277.75183°
Mean motion
3.51522 °/min
Orbital period
102.41 mins
BSTAR
0.0010549
Loading maneuver chart data...
Computing Atmospheric mass density...

Documentation

Showing up to 5 results
|